Location: *
(49.6619°S, 177.4603°W)
Time: 05:36:12
(UTC+00:00)

Cosmos 2208 Rocket - Pass Details

Date: 31 January 2023
Orbit: 753 x 805 km, 74.0° (Epoch: 01 April)

Event Time Altitude Azimuth Distance (km) Brightness Sun altitude
Exits shadow 10:48:44 44° 29° (NNE) 1,095 4.3 -21.0°
Maximum altitude 10:49:59 54° 73° (ENE) 970 4.3 -21.0°
Drops below altitude 10° 10:55:20 10° 149° (SSE) 2,413 7.1 -21.3°
Sets 10:57:49 0° 153° (SSE) 3,355 8.0 -21.4°
